Theta_e
320 321 326 327 329 328 331 332 329 331 331 327 329 328 328 332 335 327 336 338 339 336 336 336 337 336 332 330 326 325 329 333 332 332 334 334 332 329 326 326 328 332 333 331 331 329 330 327 324
321 322 327 320 329 333 332 329 331 329 328 328 329 331 332 338 335 335 339 339 338 336 335 335 335 334 333 331 328 324 328 331 332 329 333 333 330 327 324 324 327 330 332 331 330 328 324 328 325
320 324 324 324 326 332 333 329 328 327 327 328 332 332 333 335 335 336 337 339 338 337 335 335 334 334 334 331 330 327 326 330 330 330 331 332 331 330 325 324 327 329 329 326 326 324 323 328 327
319 322 319 327 332 329 330 327 325 326 326 329 331 336 333 333 335 337 338 340 338 336 336 335 334 334 333 332 330 329 326 324 330 330 331 332 331 329 327 326 324 323 323 324 320 324 328 330 328
319 318 326 329 332 329 327 325 323 326 326 331 332 337 336 336 335 337 338 340 338 337 337 336 335 334 333 333 330 329 328 325 322 330 329 329 329 330 327 326 325 323 324 322 318 320 325 329 328
315 317 327 331 330 327 326 324 324 324 328 331 333 334 335 335 337 338 338 339 338 337 338 337 335 334 333 333 332 329 328 325 323 328 331 331 328 327 326 326 325 324 324 324 320 321 317 317 321
315 317 323 325 330 329 326 321 323 327 328 330 329 335 333 334 337 338 338 338 338 337 337 337 335 333 333 333 332 330 328 327 325 326 331 330 327 325 326 327 326 326 326 324 323 322 322 322 315
312 313 318 321 327 330 324 322 320 324 325 322 327 333 335 333 337 337 337 337 338 337 337 336 335 335 333 333 333 332 330 328 327 324 326 328 327 325 325 327 327 327 327 325 323 323 323 323 322
311 312 312 318 326 328 321 323 319 319 322 322 323 327 327 335 337 337 336 336 337 338 338 337 335 334 333 334 333 333 332 330 328 327 325 323 325 325 326 327 325 325 326 325 324 324 323 322 323
310 311 312 315 322 324 322 321 319 323 323 325 327 328 331 336 336 335 335 335 337 337 338 337 336 335 335 335 334 333 332 331 332 331 329 327 325 323 323 324 324 326 325 325 325 325 324 324 323
313 312 313 321 324 322 321 321 318 321 324 323 327 329 331 334 335 335 335 336 336 336 337 337 337 336 336 335 334 333 332 331 331 330 330 330 329 329 329 325 323 325 326 326 326 325 325 324 323
318 317 320 322 321 322 321 319 320 320 320 319 322 326 326 328 330 333 333 334 335 336 336 336 337 337 336 336 335 334 333 332 331 331 331 329 329 328 328 327 327 327 327 328 327 326 326 326 325
318 317 322 321 320 320 320 320 320 321 316 315 320 321 322 324 326 330 328 323 320 326 328 326 334 337 337 336 336 335 334 333 332 331 330 330 330 329 328 328 327 327 326 326 326 326 326 326 326
317 318 320 321 320 318 321 321 319 319 316 316 316 317 315 315 316 317 318 319 319 319 319 320 322 325 335 336 336 336 335 334 334 333 332 331 329 329 330 329 330 329 327 327 326 326 326 326 326
316 318 316 320 320 320 316 318 320 317 314 316 316 315 314 315 316 316 316 316 317 318 319 320 321 324 326 331 336 336 336 335 335 334 333 331 331 330 328 328 330 330 330 329 329 330 329 328 328
316 313 316 314 319 318 315 319 311 309 310 314 313 313 313 314 311 312 313 314 316 317 318 318 319 319 322 327 332 333 333 334 335 335 332 331 330 330 330 330 329 329 331 331 331 330 330 329 329
314 312 314 314 315 316 314 314 308 311 311 311 308 310 311 311 310 311 312 313 314 314 315 315 316 316 317 317 318 318 321 325 328 332 334 333 332 332 332 331 331 331 331 330 330 330 329 329 328
315 314 313 312 313 315 314 314 310 311 312 312 311 309 308 310 309 309 309 310 310 311 312 312 312 313 313 314 315 319 319 325 327 329 331 332 332 332 332 331 330 330 331 330 329 327 327 327 327
313 312 311 310 311 316 315 315 314 313 312 312 311 310 310 309 307 307 306 306 307 308 308 309 310 311 313 313 319 323 322 325 326 326 326 327 327 328 330 329 328 328 328 328 327 326 325 325 325
317 316 315 316 317 316 316 315 313 312 312 311 311 309 310 307 305 304 304 304 304 304 305 307 310 312 314 316 321 321 320 320 321 320 321 321 325 324 323 323 323 323 323 323 322 322 321 322 322
316 316 315 316 315 314 311 310 308 308 310 311 310 309 308 308 306 302 301 301 301 302 302 304 307 309 313 319 320 319 318 315 313 311 314 313 313 313 311 312 313 314 314 315 314 313 313 313 316
317 313 314 317 315 315 312 310 311 310 310 310 310 308 307 306 303 300 300 299 300 300 300 300 304 307 310 316 318 316 315 309 306 306 306 304 304 304 303 305 306 307 306 306 306 307 308 309 310
315 314 315 316 316 315 314 313 307 308 310 309 309 307 305 303 301 299 299 298 298 298 298 298 300 303 305 309 312 313 312 307 304 303 302 299 299 298 298 298 298 299 299 300 301 302 304 305 305
313 314 313 312 312 311 313 308 304 307 311 310 309 306 304 301 299 298 297 296 296 296 296 297 298 299 301 304 305 306 304 301 301 300 298 295 294 294 294 294 295 296 297 297 297 298 298 298 299
314 313 309 311 316 311 310 311 308 307 309 309 309 306 302 299 297 296 295 295 294 295 295 296 296 296 297 298 299 300 300 299 298 296 294 292 292 291 292 292 294 295 296 296 295 295 295 294 295
314 312 309 309 312 311 309 314 311 309 307 308 307 304 301 299 297 296 296 295 295 294 294 295 295 293 292 293 294 293 293 293 293 292 291 290 290 290 290 291 292 294 294 293 293 293 291 291 291
316 318 310 311 299 308 309 308 307 309 308 306 305 303 302 300 298 296 296 295 295 294 293 293 293 292 291 290 291 291 291 290 290 289 289 289 289 289 290 290 290 291 291 290 290 290 289 288 288
315 312 317 308 309 308 309 309 309 309 310 307 305 304 303 301 299 297 296 295 295 294 293 292 291 291 290 289 289 289 288 288 288 288 288 288 288 288 289 288 288 288 288 288 288 288 288 287 286
315 316 315 311 308 310 309 309 303 309 308 307 305 304 303 301 300 297 296 296 295 294 293 292 291 290 289 288 288 287 287 287 287 287 287 287 287 287 287 286 285 285 286 286 286 286 285 285 284
313 314 313 314 314 308 309 309 305 304 306 306 305 305 303 301 300 298 297 296 295 294 292 291 290 289 288 287 286 286 286 285 285 285 285 285 286 286 285 284 284 284 284 284 284 283 283 283 282
Wind_Speed
29 14 2 5 4 5 1 1 1 2 2 3 2 7 7 3 2 2 4 15 6 16 15 14 12 10 8 7 7 7 8 7 7 7 10 9 7 6 6 5 7 7 7 7 7 6 6 6 7
23 5 3 3 5 4 3 2 6 3 6 7 6 4 5 2 2 4 7 14 16 14 15 13 12 10 8 7 7 7 8 7 7 7 8 7 6 6 7 8 7 6 7 6 5 4 3 3 5
10 4 3 4 3 4 5 3 5 5 8 3 4 5 3 3 1 13 5 18 16 13 13 12 11 10 9 7 6 6 6 7 6 5 6 6 6 5 5 6 5 5 4 3 2 2 2 3 3
8 6 4 4 2 3 5 7 4 7 2 4 4 5 2 1 5 8 16 18 16 14 13 11 10 9 9 7 6 6 5 6 7 5 5 6 5 4 3 3 2 1 3 3 2 2 4 4 2
6 3 4 4 1 1 2 6 8 7 5 3 1 3 2 2 5 13 16 17 15 14 12 10 9 9 9 8 7 6 5 4 6 7 7 6 6 7 5 3 1 1 2 2 3 1 2 1 2
4 3 4 2 0 2 2 2 5 3 3 5 5 4 3 4 12 14 15 17 14 12 13 11 10 10 9 9 7 6 6 5 5 7 8 8 7 6 6 5 4 2 2 4 3 3 3 5 6
5 3 5 5 3 1 4 6 5 6 6 3 8 4 2 4 11 15 14 15 15 13 13 12 10 11 10 10 9 7 7 6 5 7 8 9 8 6 7 7 7 6 5 5 5 5 5 7 7
4 4 4 3 6 6 5 5 6 5 3 3 2 5 4 7 14 15 12 14 15 14 13 11 10 10 11 10 9 8 7 7 6 7 9 10 9 9 8 8 9 9 9 8 7 7 8 8 8
3 4 1 4 6 4 6 5 4 1 6 3 2 6 4 17 16 13 11 14 14 15 15 13 12 10 9 9 8 8 7 8 8 8 8 9 11 10 10 10 9 9 10 11 11 11 11 11 11
4 4 7 3 2 2 3 5 10 6 5 2 3 3 14 22 17 15 15 14 16 17 17 15 14 13 12 11 9 9 7 7 8 9 10 10 10 10 11 12 11 11 10 11 13 13 14 14 15
2 4 3 1 1 2 3 2 2 8 3 6 11 9 10 13 16 16 18 18 20 19 17 17 17 16 16 14 12 12 12 10 11 10 9 9 9 8 8 9 11 12 12 14 15 15 15 15 16
2 1 1 2 4 2 4 1 2 1 4 7 10 12 9 8 12 16 15 17 18 20 21 19 19 19 19 17 17 16 15 13 12 11 11 11 11 11 12 12 12 12 12 13 13 13 13 14 14
2 2 2 2 5 3 1 3 2 2 4 2 10 9 9 9 12 15 16 14 12 11 12 14 18 23 21 21 19 19 19 17 14 13 10 12 13 13 13 14 14 14 14 14 14 15 14 14 14
1 1 2 3 2 4 2 1 4 1 2 6 7 9 9 9 14 10 12 12 11 8 8 8 8 11 21 23 22 21 21 21 19 16 15 14 12 14 14 15 17 17 16 16 16 16 16 17 16
3 2 4 2 1 1 0 5 5 2 6 1 4 6 6 9 6 7 6 5 5 6 8 9 8 7 9 18 21 21 21 22 22 20 17 15 14 12 15 15 17 18 18 18 18 18 19 19 19
4 4 1 2 2 1 4 6 4 4 3 7 6 6 5 3 2 1 3 6 8 10 9 8 6 5 5 7 14 17 17 18 21 22 18 17 17 16 15 15 15 15 16 17 18 18 19 21 22
4 3 4 6 5 2 3 5 4 2 6 5 5 8 6 4 6 9 10 10 8 7 5 4 4 5 6 7 8 7 8 10 11 14 18 17 15 17 17 15 14 14 14 13 13 14 13 17 17
6 4 4 5 3 4 4 9 7 6 4 7 7 5 8 6 3 8 9 8 6 5 2 2 4 6 9 10 9 6 7 6 7 6 7 10 11 12 14 15 14 13 12 11 13 15 14 15 16
5 3 4 3 4 4 6 8 9 9 6 8 8 7 7 5 6 7 7 6 5 4 2 3 5 7 8 5 2 3 4 6 7 6 6 5 3 4 5 7 8 8 9 8 10 10 11 12 9
1 3 4 1 1 5 3 10 10 9 7 9 11 9 9 6 6 7 7 6 6 5 5 5 6 6 6 3 4 3 9 8 10 9 8 7 4 3 2 2 1 1 2 4 5 5 5 4 5
2 3 2 0 3 2 5 7 6 6 6 7 7 8 7 12 10 6 7 6 6 7 7 7 6 5 5 5 7 9 10 11 8 8 6 6 4 3 2 1 2 3 4 5 5 6 6 6 4
4 6 4 3 3 3 2 5 6 4 7 5 5 7 8 9 7 7 10 7 6 6 5 5 5 6 7 6 9 10 8 6 4 5 5 4 3 2 4 4 3 2 1 1 2 3 3 4 4
5 5 5 2 1 2 1 1 7 4 6 6 1 4 5 7 9 8 9 8 6 5 4 5 6 8 8 6 5 6 8 7 8 5 3 3 3 3 2 2 2 2 3 4 3 3 3 2 1
6 6 6 4 2 3 7 7 5 4 4 1 3 5 6 7 7 9 9 8 7 5 4 5 6 8 6 5 5 6 8 9 8 6 3 2 2 3 3 3 3 3 4 4 5 5 5 5 6
4 6 1 2 2 6 1 2 7 7 5 4 8 9 7 6 7 6 7 7 5 4 3 3 4 6 4 4 5 4 6 7 6 6 5 4 4 4 4 3 3 4 5 5 5 6 7 7 8
5 6 5 7 4 4 3 6 5 2 5 5 8 8 7 6 5 6 7 7 6 4 2 2 2 2 2 3 4 5 5 6 7 7 6 6 5 4 4 4 4 5 5 5 5 7 9 9 10
5 6 5 5 2 2 3 6 9 2 6 7 7 7 6 6 7 7 8 8 7 7 5 2 4 2 1 2 2 3 4 4 5 6 5 5 5 5 5 4 5 5 6 6 7 9 11 10 11
5 7 2 2 1 4 3 5 4 2 3 4 5 6 6 5 6 5 7 9 9 8 8 8 6 5 3 2 3 3 3 4 4 5 5 5 6 6 5 5 5 5 6 7 8 10 10 9 11
4 4 3 5 4 4 1 5 5 4 2 8 7 7 6 6 5 4 10 12 13 13 12 11 9 8 7 7 6 5 5 4 4 5 6 6 7 6 6 6 6 6 7 8 9 10 10 11 11
4 5 5 4 4 3 2 5 3 5 4 6 6 5 4 6 7 7 12 14 17 19 16 15 12 11 10 9 8 6 5 5 5 6 7 7 7 7 7 7 8 8 9 9 9 10 10 11 11
Wind_Direction
340 345 75 51 61 65 51 181 321 148 59 338 98 116 123 66 134 188 155 181 182 163 164 166 160 161 147 137 128 129 133 129 127 122 139 128 117 100 84 97 105 102 100 79 79 86 93 91 92
338 355 53 81 88 83 274 224 172 202 145 129 87 91 55 88 129 125 131 171 166 161 166 168 169 167 160 149 140 133 137 137 134 138 138 134 123 108 87 107 113 115 101 77 63 56 100 113 110
349 15 80 88 104 152 173 206 168 143 160 112 88 53 120 147 15 161 189 161 163 162 167 171 174 173 169 160 156 148 154 155 153 147 157 155 142 138 112 98 100 100 87 30 20 55 104 142 133
348 16 38 81 140 207 181 181 172 128 328 40 116 66 23 195 175 188 157 163 166 164 165 170 179 182 179 173 171 171 168 179 184 176 169 180 183 186 165 139 126 220 301 309 8 96 110 144 127
27 52 56 75 14 339 199 161 166 144 147 110 42 169 93 26 149 156 165 170 174 174 177 182 187 190 188 186 185 185 189 193 196 194 196 187 191 192 210 223 234 312 351 344 2 84 177 211 254
30 85 66 128 269 10 60 165 147 111 121 153 85 103 186 165 150 160 169 180 185 185 186 192 194 196 197 198 198 198 202 208 208 198 192 205 204 213 231 229 241 263 289 329 299 333 300 276 277
94 69 166 158 162 108 184 145 160 142 130 182 151 111 270 212 172 165 175 186 193 194 193 195 199 199 205 207 208 210 211 214 216 210 208 212 224 230 230 236 243 249 263 282 297 302 302 305 296
98 87 125 187 179 211 181 136 146 140 164 92 129 168 215 214 174 172 185 197 201 203 204 205 199 206 212 216 220 221 220 224 228 228 229 232 236 237 239 246 248 256 262 275 287 297 296 298 296
115 63 187 210 159 219 177 139 142 111 119 96 122 155 230 165 171 173 172 188 204 210 214 215 213 210 211 219 222 222 224 231 237 241 243 245 245 248 249 253 256 259 261 267 275 288 292 293 291
82 116 208 211 239 300 233 168 158 133 141 77 83 70 142 155 169 174 184 194 205 216 221 223 223 224 220 222 219 219 227 244 255 258 255 257 261 261 261 255 257 262 268 269 269 279 285 286 287
139 181 197 257 6 252 230 220 211 123 207 201 170 162 149 161 178 191 201 210 216 225 230 230 231 233 229 228 225 223 222 237 248 254 263 270 264 259 273 273 264 269 272 271 272 276 281 289 286
151 292 217 20 354 24 152 0 198 182 226 195 178 153 152 165 185 204 216 224 232 236 240 239 239 238 236 235 231 229 225 232 238 248 257 258 263 265 265 266 276 281 281 284 282 283 286 290 291
153 227 53 77 44 55 44 39 314 272 358 71 138 141 159 172 198 218 233 232 225 219 222 239 237 241 243 237 236 236 236 238 247 245 249 261 261 267 271 270 270 273 278 284 284 285 288 294 296
96 327 17 346 46 32 60 315 29 336 2 70 139 164 172 179 195 207 205 216 212 224 218 211 213 233 239 240 241 243 246 246 246 248 250 253 262 270 271 272 270 269 271 276 278 281 283 285 289
74 82 359 296 279 94 220 309 233 151 29 244 208 195 189 206 194 234 241 238 221 199 181 182 192 213 234 236 239 244 251 251 250 250 255 262 261 268 274 283 274 273 272 272 277 281 281 281 283
79 55 114 286 175 298 102 253 267 349 174 243 261 237 217 233 89 73 146 157 154 163 162 174 184 195 199 213 232 243 251 254 254 253 261 261 264 269 273 273 279 283 273 272 275 279 282 282 283
358 210 207 319 207 142 153 246 258 64 35 306 240 248 234 211 96 89 100 115 132 149 156 178 207 236 250 249 249 249 246 244 249 249 248 257 245 248 258 268 273 271 268 273 277 284 289 294 297
185 185 219 213 238 200 189 246 259 265 227 259 294 271 241 213 116 111 107 112 123 126 145 264 284 286 281 278 268 248 224 210 216 218 227 241 243 243 249 252 272 272 265 265 271 279 283 286 297
140 155 200 220 230 170 234 258 255 262 270 263 251 244 241 165 138 124 116 120 113 92 41 355 335 332 322 308 222 156 156 150 148 143 138 148 156 277 258 262 267 267 245 251 270 280 285 294 292
15 171 244 298 71 167 292 274 261 258 238 226 232 224 199 162 161 136 124 108 87 73 49 26 14 4 7 0 113 125 140 126 122 116 107 99 112 139 156 201 215 200 230 259 279 295 292 276 303
220 200 220 270 354 32 348 279 273 275 254 248 236 220 177 177 168 151 124 106 94 71 53 41 34 24 41 76 130 150 139 126 108 100 91 75 76 61 40 10 294 282 274 271 281 288 290 280 272
213 206 163 141 61 236 21 286 302 285 287 283 256 195 170 144 126 137 143 131 118 95 79 66 57 56 63 104 156 165 168 145 133 114 98 84 73 41 14 350 329 313 331 317 331 332 324 277 278
213 141 158 169 119 355 276 288 271 294 278 245 157 139 125 130 133 138 144 141 128 112 91 80 68 60 62 79 133 173 168 156 153 141 124 76 51 34 33 55 62 63 63 60 50 43 38 34 16
134 88 57 54 85 299 207 179 262 222 235 38 118 129 129 123 118 127 144 150 146 145 124 85 69 65 59 73 103 132 140 148 152 154 143 104 98 95 88 87 92 88 86 77 68 65 69 75 81
111 107 37 342 238 232 17 197 262 266 272 234 177 158 143 127 138 148 161 168 165 162 130 90 75 77 81 81 98 120 148 160 160 152 150 141 118 95 83 84 97 97 93 93 89 84 79 78 81
176 154 155 200 199 263 88 233 248 239 7 349 112 119 126 136 153 180 191 188 184 195 192 171 102 143 115 114 106 115 121 140 145 144 142 126 113 103 96 94 100 108 108 109 110 97 87 86 87
187 200 160 106 39 47 226 285 300 120 53 66 96 121 145 173 191 200 203 209 207 212 211 211 218 218 189 113 118 141 146 144 139 132 131 131 121 118 117 114 116 116 114 114 114 107 97 95 87
148 149 99 28 174 248 276 280 245 315 152 102 135 147 190 201 209 212 222 225 227 230 226 221 224 229 231 227 203 180 164 150 154 142 129 129 135 135 131 121 113 117 117 119 122 115 109 102 85
147 178 176 130 154 186 245 265 226 302 268 169 176 190 199 222 242 231 234 231 229 230 227 225 224 227 225 226 219 202 182 169 162 150 139 141 141 137 127 112 107 109 116 116 117 109 104 99 91
203 195 154 151 184 232 164 270 332 347 69 128 164 177 212 227 232 226 233 234 232 231 226 224 222 222 223 220 213 203 188 173 170 156 146 146 144 138 125 117 107 104 104 104 104 99 95 92 85